Theta_e
324 324 323 323 322 322 322 321 321 321 321 321 321 321 322 323 323 323 322 321 322 322 322 322 321 322 321 318 322 340 348 342 324 325 327 323 319 318 314 318 320 317 318 319 318 318 317
323 323 322 322 321 321 321 320 320 320 320 320 320 320 320 321 322 322 321 321 321 324 323 321 322 322 321 318 332 337 328 323 322 324 326 322 319 320 317 318 318 319 317 316 317 317 317
324 324 323 322 321 321 320 320 320 320 319 319 319 320 320 320 321 321 321 320 321 325 323 322 322 325 327 319 331 331 327 325 327 327 322 323 323 320 323 319 321 318 313 316 316 317 316
321 320 320 320 320 319 318 318 319 319 319 318 318 318 319 319 320 320 319 319 321 324 323 323 323 324 320 327 332 329 331 328 330 328 325 327 324 324 324 324 317 314 315 310 315 315 316
317 317 317 317 317 317 317 317 317 318 318 318 318 318 318 318 319 319 318 318 323 325 324 325 326 327 319 330 325 327 328 324 325 326 326 327 326 322 320 313 311 314 308 311 312 316 315
316 316 316 316 316 315 315 315 316 317 317 317 317 317 317 317 318 317 316 317 324 324 325 329 328 323 323 317 324 326 327 326 323 323 321 319 318 315 315 312 305 309 308 310 309 314 314
315 315 315 315 315 315 314 315 314 315 316 316 316 316 316 316 317 316 319 326 321 322 324 323 320 323 321 324 324 323 326 324 322 319 314 318 313 310 314 314 313 312 310 309 312 315 312
314 314 314 314 314 313 313 314 314 314 315 315 315 315 316 315 315 315 318 320 318 321 314 322 321 322 323 323 316 319 325 318 317 311 315 313 309 315 316 314 312 311 309 310 313 315 313
313 313 313 313 313 313 313 313 313 314 314 314 314 314 314 314 314 320 324 320 326 326 315 320 319 318 320 320 316 317 320 319 315 312 313 310 313 316 313 312 311 311 310 310 310 313 315
312 312 312 312 312 313 312 313 313 313 313 313 313 314 313 311 317 326 323 325 327 325 311 313 314 318 320 319 314 322 321 319 315 312 314 312 316 313 312 311 312 309 314 312 310 308 304
312 311 311 311 312 312 312 312 312 312 312 312 313 313 312 312 322 323 324 328 326 323 302 314 314 323 320 315 317 317 322 319 312 313 313 310 312 311 310 312 313 309 313 311 310 308 308
311 311 311 311 311 311 311 311 311 312 312 312 312 312 311 318 324 329 328 328 324 308 301 311 315 313 313 315 316 318 317 319 319 314 314 313 317 314 313 315 314 314 311 312 312 309 302
310 310 310 310 310 310 310 311 311 311 311 311 311 310 311 318 322 329 327 324 309 304 316 311 311 313 312 311 312 313 312 311 309 306 307 311 311 314 314 311 314 313 310 302 301 302 301
310 310 310 310 309 309 310 311 311 310 310 310 309 309 317 323 327 327 324 315 304 312 312 315 313 313 309 312 312 312 311 309 313 312 308 307 305 312 315 312 310 311 309 302 297 298 301
310 310 309 310 309 310 310 310 310 310 309 309 308 319 322 327 329 326 317 306 308 312 315 312 312 309 310 312 312 312 311 310 313 314 308 306 307 315 315 315 313 310 307 312 306 306 301
311 310 311 311 310 310 310 310 310 310 309 308 312 316 318 325 326 321 311 303 310 315 315 313 307 311 307 310 310 310 311 314 312 315 316 312 306 313 314 314 314 311 314 304 305 299 297
311 311 311 311 311 310 310 310 310 309 308 308 316 317 322 326 324 315 306 308 312 315 315 311 309 309 311 310 312 310 310 314 315 314 315 313 310 309 313 310 309 309 309 309 309 306 299
311 311 311 311 311 310 310 310 309 308 307 311 315 309 325 326 310 311 307 311 306 314 316 312 312 312 311 311 310 310 310 314 317 316 311 314 311 305 308 315 316 313 311 310 302 302 305
311 312 312 311 311 310 310 310 309 307 307 308 310 312 321 320 304 307 312 311 313 311 311 311 310 312 313 311 309 311 313 316 316 315 312 315 309 303 305 309 313 310 311 312 310 309 303
311 311 312 312 311 310 309 309 309 308 307 309 312 309 314 314 313 309 310 312 310 313 311 314 312 314 312 310 313 310 311 315 316 314 322 317 310 306 300 304 309 307 309 311 309 303 303
311 311 311 312 312 311 310 310 309 308 307 310 316 310 315 311 314 312 311 310 309 309 313 313 311 310 310 307 309 309 312 313 314 315 314 312 305 307 307 308 308 307 306 307 305 305 301
310 310 310 311 312 311 310 310 309 308 306 313 312 311 313 312 311 313 310 309 309 309 311 310 309 311 311 308 310 309 312 312 311 313 311 312 307 308 304 307 306 303 305 306 305 305 304
310 311 310 310 311 311 311 310 310 307 306 312 315 316 312 306 307 307 307 308 309 311 312 313 313 312 310 313 315 316 317 317 315 313 312 312 308 306 301 306 304 299 304 305 306 308 307
310 310 310 310 310 310 309 309 309 308 306 308 313 310 307 303 305 305 308 309 309 312 311 313 314 312 316 320 319 317 315 315 313 312 314 311 312 308 301 303 294 304 310 310 308 309 311
310 310 310 310 310 310 309 309 309 309 308 306 312 310 308 304 306 307 307 308 311 312 311 312 316 317 319 316 310 307 307 308 308 310 311 312 309 303 299 299 302 305 310 309 308 308 315
310 310 310 311 310 310 309 309 308 309 308 306 312 316 310 303 304 310 307 308 306 307 308 310 316 318 316 310 307 301 298 302 302 306 312 311 316 305 302 296 294 307 315 317 316 305 318
310 310 310 310 310 310 310 309 308 308 308 305 308 315 309 304 307 308 306 306 311 310 305 309 311 311 315 307 302 300 299 305 300 301 305 306 307 302 301 299 302 309 312 319 303 308 319
311 310 310 310 310 310 309 309 309 308 307 306 307 316 310 306 308 310 310 306 308 310 307 310 310 309 308 305 304 303 301 303 303 308 306 305 304 302 304 299 297 319 316 310 318 321 319
310 310 310 310 310 310 309 309 309 308 307 306 305 315 315 308 307 312 312 313 312 311 308 309 310 312 312 308 307 305 302 304 306 299 312 304 309 306 308 308 319 320 318 321 321 318 319
Wind_Speed
17 18 19 19 20 21 21 22 23 23 23 24 24 24 23 23 22 21 19 18 15 11 7 7 7 6 6 7 1 9 9 7 9 10 14 12 11 11 14 13 9 8 9 7 8 6 6
17 16 19 19 19 19 20 20 21 22 23 24 25 24 24 23 23 22 19 17 14 12 4 5 7 7 6 9 12 12 12 12 11 14 14 13 11 10 12 15 9 11 10 9 5 6 1
17 17 18 18 19 20 21 22 22 22 23 22 23 23 23 23 23 22 20 17 14 8 2 5 8 7 11 3 9 11 12 12 14 17 12 10 11 13 6 12 6 7 11 13 7 3 4
18 19 19 19 19 20 22 23 24 23 23 24 24 24 24 24 22 22 20 17 13 5 3 6 8 8 5 4 6 10 14 12 11 9 11 11 8 14 14 13 13 13 15 12 12 3 7
19 19 20 20 21 21 22 23 24 24 24 24 25 25 25 25 23 21 19 16 10 3 3 8 7 8 4 4 10 11 9 8 8 10 8 7 8 13 16 11 15 14 12 13 11 5 4
18 19 20 21 22 23 23 23 23 25 25 25 26 26 26 26 25 20 21 9 4 6 7 11 11 10 9 10 11 12 9 10 6 7 8 8 9 13 13 12 10 11 3 5 1 12 5
19 20 20 21 22 23 24 24 24 25 25 27 26 27 27 27 28 19 14 4 7 7 11 10 15 9 10 10 6 7 10 10 8 7 12 13 11 14 9 7 11 10 7 8 3 4 3
19 20 21 21 22 23 24 24 24 25 26 27 27 28 29 29 28 25 7 7 7 7 11 20 11 7 1 11 9 10 11 10 10 12 14 7 13 2 9 5 7 9 7 12 3 5 4
19 19 21 22 22 22 23 24 25 25 26 26 27 27 29 31 32 11 6 6 7 7 8 12 11 14 12 9 11 13 14 14 10 13 9 14 6 7 2 8 8 12 11 10 9 7 9
18 19 20 21 22 22 23 24 25 26 27 27 27 27 27 31 6 12 4 8 7 3 7 14 10 10 13 11 10 16 14 14 7 11 10 9 9 3 6 10 4 8 11 6 9 11 12
18 19 20 21 22 22 23 24 26 26 27 28 28 27 28 8 12 8 9 9 8 5 7 12 12 12 12 12 13 11 14 10 13 9 5 3 4 5 6 5 6 13 10 11 13 13 15
18 19 20 22 22 23 23 24 26 27 28 29 29 26 24 2 7 14 10 11 7 7 6 10 11 11 14 16 9 13 10 10 9 10 8 13 6 5 7 7 4 10 13 15 16 15 13
18 19 20 21 23 24 24 25 26 28 29 30 31 31 16 9 9 13 10 9 7 10 9 11 12 13 15 15 13 10 12 13 12 9 13 15 12 10 1 9 12 10 12 9 11 11 6
17 18 19 21 23 24 24 25 27 29 31 31 34 32 9 9 10 13 8 9 9 13 9 6 2 15 15 16 13 13 13 13 15 17 12 9 7 14 10 5 9 8 6 6 12 13 10
17 17 19 20 22 22 24 25 27 29 32 32 34 8 8 10 13 5 8 9 12 12 9 3 8 11 12 14 7 13 12 14 14 18 10 11 6 12 4 2 2 3 7 13 8 13 13
14 16 17 18 18 20 23 25 27 30 33 32 10 10 13 10 6 7 8 14 17 15 5 6 11 7 13 15 11 13 11 12 12 4 4 11 9 6 10 4 8 9 10 8 9 12 9
12 13 14 16 17 19 21 24 26 29 34 35 6 7 9 7 6 7 10 14 11 5 3 7 13 15 14 15 10 13 16 11 7 4 3 12 12 10 13 6 12 9 11 7 9 6 9
13 14 14 15 16 18 20 22 24 26 34 11 7 7 8 4 8 8 12 19 7 7 5 8 10 15 16 8 16 5 14 9 4 7 6 4 9 9 16 14 3 6 11 13 10 12 8
13 14 14 14 15 16 19 20 21 21 20 10 8 11 7 6 9 12 15 12 6 9 11 9 10 10 14 12 8 8 12 11 6 2 4 6 5 9 16 16 13 8 3 11 9 8 11
13 15 15 15 13 15 17 19 21 21 19 9 7 6 8 7 11 16 14 11 9 10 12 10 10 11 9 10 11 8 11 9 7 9 7 2 10 10 12 18 12 10 10 10 11 8 11
13 14 14 15 13 14 16 18 21 24 23 6 7 5 9 5 0 10 9 12 9 9 9 12 8 14 9 12 11 12 12 8 9 10 3 5 11 14 15 16 17 17 18 17 17 16 17
15 13 13 15 13 13 14 17 19 24 31 6 7 7 12 13 12 9 6 9 13 15 12 9 11 16 12 13 12 13 11 12 11 15 9 8 13 11 13 15 17 21 20 19 19 19 21
13 12 13 13 14 12 13 14 17 19 22 7 10 12 8 9 11 9 11 14 13 9 12 6 10 12 12 12 15 15 11 7 7 5 9 7 8 9 13 14 18 17 18 17 17 15 15
11 11 12 12 13 14 12 11 13 13 13 8 10 8 7 10 11 12 12 12 10 7 9 8 7 7 10 11 13 12 13 10 12 12 9 9 8 9 13 14 19 18 21 15 9 7 7
11 12 12 12 12 13 11 10 11 12 12 9 10 7 8 10 13 14 10 9 9 8 8 11 13 5 7 9 10 11 11 14 17 18 13 13 10 11 12 14 18 22 9 13 7 7 8
11 12 12 12 11 12 11 10 8 10 12 9 10 6 7 8 4 14 14 6 9 10 12 12 13 10 8 6 9 15 14 16 14 19 18 17 11 7 11 17 18 14 2 6 7 7 7
12 12 11 11 10 10 11 10 9 9 10 9 8 10 7 9 13 11 7 9 12 9 9 11 8 10 9 8 11 14 16 18 18 18 17 13 9 11 12 14 17 15 10 9 7 2 6
13 12 11 11 10 10 9 9 9 8 9 9 8 6 6 9 15 14 13 11 11 8 9 12 7 7 7 10 11 12 14 15 18 17 16 14 13 14 13 17 21 15 2 7 7 2 1
12 12 11 11 9 9 9 9 9 8 8 8 8 7 7 7 13 18 17 17 17 15 12 10 13 12 5 8 7 9 13 13 15 15 15 15 14 10 10 3 5 4 1 3 7 2 3
Wind_Direction
13 9 3 2 2 360 357 355 352 348 347 346 345 343 340 338 336 334 332 330 324 309 278 247 230 220 224 224 286 127 143 152 178 202 228 239 243 250 263 296 319 262 273 341 312 326 356
11 8 2 1 359 357 353 353 352 348 347 344 343 341 338 336 335 333 331 330 324 310 266 209 193 176 244 257 102 133 154 162 184 200 230 235 251 275 296 276 306 321 326 299 281 114 169
9 4 360 357 355 356 352 350 349 346 344 342 339 336 334 333 333 331 330 328 325 327 196 178 179 232 258 304 139 137 157 177 183 217 217 232 269 282 277 289 311 309 267 234 206 111 150
5 1 357 354 354 355 353 350 348 345 341 339 336 334 333 330 331 330 328 323 320 338 165 174 180 247 286 133 154 172 196 185 203 234 278 298 239 272 279 290 287 245 228 211 142 231 120
4 2 360 357 355 355 353 350 347 344 341 339 335 333 332 329 329 329 321 315 300 269 176 170 211 239 224 138 203 196 217 195 192 229 232 301 278 259 267 242 253 223 247 146 143 131 327
5 3 360 357 356 355 353 349 345 343 340 339 335 332 330 328 325 329 315 278 295 279 213 210 260 257 178 200 192 185 207 273 210 195 204 226 235 240 227 245 279 341 343 114 246 134 187
6 4 0 358 357 355 351 348 346 341 339 337 335 332 329 327 322 331 325 216 203 194 235 257 142 256 161 105 141 207 191 223 221 219 236 187 227 233 218 24 6 327 317 313 303 91 309
4 3 0 358 356 353 350 347 344 341 338 336 333 331 328 326 321 318 268 300 32 329 291 227 253 261 167 163 187 204 181 209 208 234 213 218 231 305 19 350 313 297 280 260 149 126 276
3 1 360 358 355 352 349 346 343 340 337 335 332 330 329 325 318 290 278 20 314 305 260 225 204 214 193 212 231 172 190 219 232 237 224 265 78 52 314 251 246 242 256 17 340 331 254
2 1 360 357 354 351 349 345 341 340 336 332 330 329 330 329 297 341 298 357 323 24 268 156 193 212 172 216 234 167 192 222 232 265 219 260 80 341 274 279 323 339 20 332 293 282 281
0 359 359 356 353 350 348 344 340 338 335 330 328 328 326 315 309 307 353 317 336 246 275 143 138 128 177 213 128 172 182 229 267 235 248 248 121 211 251 305 28 310 355 301 286 278 272
359 358 357 355 353 350 347 343 339 336 333 329 325 324 331 196 225 256 322 318 259 236 249 157 142 190 179 212 187 154 197 237 278 296 237 281 44 336 299 8 286 309 295 276 255 246 249
358 357 356 354 352 349 346 342 339 337 334 328 322 314 309 298 263 336 311 280 234 246 132 157 175 183 203 194 217 177 195 205 237 211 232 226 216 208 347 273 231 242 275 307 305 213 255
356 356 355 354 353 351 346 343 341 337 333 329 321 308 251 235 281 276 289 254 253 265 223 66 254 182 203 218 204 188 210 223 214 261 283 261 257 169 152 254 345 320 341 297 304 311 357
353 353 353 352 351 349 346 343 342 337 333 330 313 284 237 221 222 276 265 239 236 252 343 87 216 272 222 246 209 208 227 251 241 213 235 287 6 88 127 105 197 212 265 328 313 285 270
345 348 346 343 345 344 344 344 342 339 334 331 314 288 261 183 220 241 253 254 284 312 353 343 281 223 250 225 188 233 251 220 243 135 352 289 298 221 171 160 250 245 308 294 265 257 285
331 334 335 340 341 340 341 343 343 342 335 322 267 258 116 169 214 235 242 249 256 195 337 277 272 270 282 274 268 204 234 248 196 127 210 279 277 268 143 197 252 175 238 217 291 308 309
323 320 323 326 333 339 340 342 345 347 339 342 296 257 122 224 231 232 241 240 297 288 189 255 273 291 293 269 269 262 270 28 83 178 279 253 291 256 265 292 228 278 295 305 281 282 273
325 317 306 313 325 334 340 340 343 350 3 316 295 299 281 224 247 233 244 236 259 265 248 260 237 253 270 280 283 274 271 82 85 212 13 342 253 257 248 248 218 203 286 281 251 276 265
323 331 336 328 321 327 337 339 339 342 347 319 276 275 199 211 256 285 295 298 222 205 287 313 288 284 256 261 262 249 268 137 129 69 41 319 277 295 288 309 315 298 257 220 259 270 280
312 318 323 328 324 324 331 336 339 338 339 296 244 282 21 286 279 280 264 280 286 221 190 264 241 259 247 260 247 242 239 255 146 147 204 264 261 273 276 285 296 295 290 287 279 279 274
308 309 317 330 322 323 328 334 341 340 333 234 296 344 350 305 296 292 276 265 268 275 278 192 234 271 229 257 253 266 254 240 233 153 189 240 255 259 279 288 282 277 276 274 272 271 273
302 307 315 318 328 324 327 335 342 350 339 316 14 331 288 293 287 249 261 258 249 267 273 309 301 310 257 19 351 333 313 302 332 273 207 199 266 277 270 292 297 283 270 267 273 275 273
296 301 307 315 322 322 322 332 339 351 359 318 311 318 284 283 260 268 263 307 273 350 321 307 278 251 22 348 322 292 286 291 299 282 260 248 272 282 277 280 270 266 267 272 273 294 309
290 294 298 303 313 323 317 320 333 336 343 317 313 301 305 287 289 296 273 269 299 309 271 276 287 303 11 321 293 267 260 265 262 266 251 239 242 259 263 260 272 278 313 232 237 257 354
279 283 286 292 300 311 318 317 318 328 337 315 308 355 283 289 272 349 321 333 301 275 254 235 245 267 293 286 272 250 247 261 252 234 229 243 232 242 261 278 278 288 118 69 74 252 63
270 271 274 283 289 298 311 321 311 314 326 316 294 296 290 285 281 307 286 342 324 307 285 299 311 231 209 239 253 253 252 241 245 260 280 207 209 240 243 248 256 269 277 138 240 61 76
264 257 263 270 278 282 293 310 304 302 316 315 310 300 310 297 296 298 319 310 300 260 285 17 300 242 267 244 255 267 267 264 269 265 242 234 207 221 233 247 250 6 102 269 60 116 314
256 250 252 260 265 267 277 292 299 291 294 314 273 16 341 276 299 316 295 288 290 292 302 303 295 309 318 326 258 274 268 269 270 271 268 251 254 227 247 92 214 236 269 102 273 310 295